Location: Auckland
(36.8670°S, 174.7670°E)
Time: 18:35:53
(UTC+12:00)

A-11 Canister half - Pass Details

Date: 29 July 2019
Orbit: 1526 x 1683 km, 47.3° (Epoch: 23 August)

Event Time Altitude Azimuth Distance (km) Brightness Sun altitude
Rises 10:43:16 0° 247° (WSW) 4,727 11.2 29.1°
Reaches altitude 10° 10:46:29 10° 241° (WSW) 3,760 10.7 29.4°
Maximum altitude 10:55:41 49° 168° (SSE) 1,979 9.6 30.2°
Drops below altitude 10° 11:05:10 10° 94° (E) 3,871 11.4 31.0°
Sets 11:08:31 0° 88° (E) 4,875 11.9 31.2°
